Liste des engagé(e)s
Classement
PDF
   
         
   
 
Pos Nom Prénom Pays Temps Ecart Pl. Cat. Pl. Sexe Club
1 126 BRUCHON CLÉMENT 00:18:27 1 CA 1 M SAINT-JEAN-DE-BOURNAY
2 763 GUERIN JEAN-CÔME 00:20:20 01:53 2 CA 2 M AGNIN
3 626 THIBAULT Clément 00:20:54 02:27 3 CA 3 M JSP BELLEDONNE DOMENE
4 158 PICON Félix 00:21:03 02:36 4 CA 4 M JSP VINAY
5 868 DUMOULIN Benjamin 00:21:40 03:13 5 CA 5 M JSP MONTALIEU
6 351 CALANDRE Thomas 00:22:04 03:37 6 CA 6 M JSP PEAGE DE ROUSSILLON
7 618 FROMENT Grégory 00:22:06 03:39 7 CA 7 M JSP BELLEDONNE DOMENE
8 460 LOPEZ Alexandre 00:22:18 03:51 8 CA 8 M JSP VIZILLE
9 292 BROCH Dorian 00:22:18 03:51 9 CA 9 M JSP TULLINS
10 128 LACROIX THOMAS 00:22:27 04:00 10 CA 10 M SAINT-JEAN-DE-BOURNAY
11 462 PAPASEIT GUILHEM 00:22:32 04:05 11 CA 11 M SAINT-GEORGES-D'ESPÉRANCHE
12 727 PARIS Maxence 00:22:46 04:19 12 CA 12 M JSP VIENNE
13 854 BOUDRY Etienne 00:22:47 04:20 13 CA 13 M JSP MONTALIEU
14 465 FOREST Louis 00:22:47 04:20 14 CA 14 M JSP ST GEORGES D'ESPERANCHE
15 694 ARNAUD-GODET Robin 00:22:51 04:24 15 CA 15 M JSP DENT DE CROLLES
16 233 SAAD Alexandre 00:22:57 04:30 16 CA 16 M SAINT-MARCELLIN
17 347 MORELLON Valentin 00:23:12 04:45 17 CA 17 M JSP PEAGE DE ROUSSILLON
18 721 BILLOTET Alexis 00:23:14 04:47 18 CA 18 M JSP VIENNE
19 349 BILLOT Lucas 00:23:23 04:56 19 CA 19 M JSP PEAGE DE ROUSSILLON
20 649 DRUCKE Aloïs 00:23:29 05:02 20 CA 20 M JSP MOIRANS
21 501 CUCHERAT Romain 00:23:31 05:04 21 CA 21 M JSP ST SAVIN
22 787 GEORJON Camille 00:23:38 05:11 22 CA 22 M JSP TERRES FROIDES
23 729 THELLIERE Nathan 00:23:39 05:12 23 CA 23 M JSP VIENNE
24 496 GROUALLE Théo 00:23:41 05:14 24 CA 24 M JSP ST SAVIN
25 129 LACROIX MATHIEU 00:23:43 05:16 25 CA 25 M SAINT-JEAN-DE-BOURNAY
26 374 CISSE Mathieu 00:23:54 05:27 26 CA 26 M JSP ST MARCELLIN
27 497 PAUL Ilyesse 00:24:00 05:33 27 CA 27 M JSP ST SAVIN
28 898 WAGNER CAMILLE 00:24:14 05:47 28 CA 28 M JSP TULLINS
29 728 PINNA Luigi 00:24:19 05:52 29 CA 29 M JSP VIENNE
30 855 CALPETARD Mathieu 00:24:25 05:58 30 CA 30 M JSP MONTALIEU
31 81 BERGER KÉLIAN 00:24:26 05:59 31 CA 31 M SAINT-ÉTIENNE-DE-SAINT-GEOIRS
32 153 FEUGIER Vincent 00:24:27 06:00 32 CA 32 M JSP VINAY
33 345 SENER Enis 00:24:28 06:01 33 CA 33 M JSP PEAGE DE ROUSSILLON
34 185 BOUCHEZ Mathéo 00:24:28 06:01 34 CA 34 M JSP DES DEUX GUIERS
35 376 HITSCH Mathieu 00:24:34 06:07 35 CA 35 M JSP ST MARCELLIN
36 857 JACQUET BAPTISTE 00:24:36 06:09 36 CA 36 M JSP MONTALIEU
37 183 LENFANT Loïc 00:24:44 06:17 37 CA 37 M JSP DES DEUX GUIERS
38 761 ABEILLE ROMAIN 00:24:52 06:25 38 CA 38 M COLOMBE
39 90 BORRALHEIRO Enzo 00:24:56 06:29 39 CA 39 M JSP ST ETIENNE DE ST GEOIRS
40 504 ANDRE ROMAGNY Tom 00:25:00 06:33 40 CA 40 M JSP ST SAVIN
41 503 VILQUIN Lucas 00:25:03 06:36 41 CA 41 M JSP ST SAVIN
42 498 MAJRI Malek 00:25:10 06:43 42 CA 42 M JSP ST SAVIN
43 620 PILLITERRI Luca 00:25:17 06:50 43 CA 43 M JSP BELLEDONNE DOMENE
44 720 ALONSO Joris 00:25:18 06:51 44 CA 44 M JSP VIENNE
45 723 HUGNY Iannys 00:25:21 06:54 45 CA 45 M JSP VIENNE
46 548 CROUZET Léo 00:25:22 06:55 46 CA 46 M JSP VAL DU VER
47 726 PAPA Alexandre 00:25:22 06:55 47 CA 47 M JSP VIENNE
48 430 ESCOFFIER Jonathan 00:25:22 06:55 48 CA 48 M JSP ST EGREVE
49 505 MARGERIE Raphael 00:25:46 07:19 49 CA 49 M JSP ST SAVIN
50 710 DESCURES Maxime 00:25:46 07:19 50 CA 50 M JSP DENT DE CROLLES
51 630 GUICHARD Jarod 00:25:47 07:20 51 CA 51 M JSP BELLEDONNE DOMENE
52 831 BOSSU Liann 00:25:52 07:25 52 CA 52 M JSP DAUPHINE EST
53 100 HANNIFI Mickael 00:25:54 07:27 53 CA 53 M JSP ST ETIENNE DE ST GEOIRS
54 625 ROSSET Rémi 00:25:54 07:27 54 CA 54 M JSP BELLEDONNE DOMENE
55 44 MARTIN ANTHONY 00:26:02 07:35 55 CA 55 M BEAUREPAIRE
56 724 LIBERSART Wallerand 00:26:04 07:37 56 CA 56 M JSP VIENNE
57 246 PERRIER Tom 00:26:05 07:38 57 CA 57 M JSP LES VAULNAVEYS
58 506 SUDRE Gabin 00:26:09 07:42 58 CA 58 M JSP ST SAVIN
59 156 JEANNE Alexandre 00:26:10 07:43 59 CA 59 M JSP VINAY
60 793 DE OLIVEIRA Enzo 00:26:17 07:50 60 CA 60 M JSP TERRES FROIDES
61 127 LAPORTE ANTOINE 00:26:21 07:54 61 CA 61 M SAINT-JEAN-DE-BOURNAY
62 350 PARRA Evan 00:26:22 07:55 62 CA 62 M JSP PEAGE DE ROUSSILLON
63 132 ROCHE LOUIS 00:26:29 08:02 63 CA 63 M SAINT-JEAN-DE-BOURNAY
64 598 CORAZZA Louis 00:26:39 08:12 64 CA 64 M JSP PORTE DE CHARTREUSE
65 131 PELLET VALENTIN 00:26:46 08:19 65 CA 65 M SAINT-JEAN-DE-BOURNAY
66 832 BENOIT CATTIN Antonin 00:26:47 08:20 66 CA 66 M JSP DAUPHINE EST
67 679 QUERTINIER Owen 00:26:47 08:20 67 CA 67 M JSP LA MURE
68 828 FAUGIER-DUPUIS Grégory 00:26:48 08:21 68 CA 68 M JSP DAUPHINE EST
69 125 GLASSON BAPTISTE 00:26:49 08:22 69 CA 69 M SAINT-JEAN-DE-BOURNAY
70 725 MARSZALEK Clément 00:26:50 08:23 70 CA 70 M JSP VIENNE
71 486 CIAVOLELLA Johan 00:26:52 08:25 71 CA 71 M JSP CHASSE SUR RHONE
72 152 CULLIERE Loic 00:26:56 08:29 72 CA 72 M JSP VINAY
73 830 FOUQUET Quentin 00:27:04 08:37 73 CA 73 M JSP DAUPHINE EST
74 433 GIANFORCARO Adrien 00:27:06 08:39 74 CA 74 M JSP ST EGREVE
75 650 REYNAUD Lucas 00:27:09 08:42 75 CA 75 M JSP MOIRANS
76 463 BARGE Lucas 00:27:18 08:51 76 CA 76 M JSP ST GEORGES D'ESPERANCHE
77 101 MANET Alban 00:27:24 08:57 77 CA 77 M JSP ST ETIENNE DE ST GEOIRS
78 487 MARTIN Mattéo 00:27:32 09:05 78 CA 78 M JSP CHASSE SUR RHONE
79 193 COSME Léo 00:27:47 09:20 79 CA 79 M JSP DES DEUX GUIERS
80 886 KIEL Louis 00:27:56 09:29 80 CA 80 M JSP PONT-DE-CHERUY
81 858 MONAVON Maxence 00:27:57 09:30 81 CA 81 M JSP MONTALIEU
82 557 DUFOUR Tanguy 00:28:04 09:37 82 CA 82 M JSP VAL DU VER
83 294 CANOVAS Théo 00:28:07 09:40 83 CA 83 M JSP TULLINS
84 212 LEFEBVRE ALOYS 00:28:12 09:45 84 CA 84 M LA TOUR-DU-PIN
85 588 LOCICERO Matys 00:28:22 09:55 85 CA 85 M JSP PORTE DE CHARTREUSE
86 702 PINCHOT Maxim 00:28:24 09:57 86 CA 86 M JSP DENT DE CROLLES
87 189 LESPINASSE Florentin 00:28:25 09:58 87 CA 87 M JSP DES DEUX GUIERS
88 154 FONTANA Bastien 00:28:37 10:10 88 CA 88 M JSP VINAY
89 311 ROUSELLE David 00:28:38 10:11 89 CA 89 M JSP TULLINS
90 458 MOIRON Rayane 00:28:39 10:12 90 CA 90 M JSP VIZILLE
91 485 BELDJOUDI Ryad 00:28:39 10:12 91 CA 91 M JSP CHASSE SUR RHONE
92 53 PINERO JORIS 00:28:47 10:20 92 CA 92 M BEAUREPAIRE
93 42 BONIN KÉVIN 00:28:48 10:21 93 CA 93 M BEAUREPAIRE
94 93 LAG-GOMEZ Mathys 00:29:07 10:40 94 CA 94 M JSP ST ETIENNE DE ST GEOIRS
95 387 BUHAGIAR Milo 00:29:08 10:41 95 CA 95 M JSP OYTIER SEPTEME
96 82 ATEK LOGAN 00:29:10 10:43 96 CA 96 M SAINT-ÉTIENNE-DE-SAINT-GEOIRS
97 698 MIOSSEC Jimmy 00:29:11 10:44 97 CA 97 M JSP DENT DE CROLLES
98 826 CHABOUD Corentin 00:29:23 10:56 98 CA 98 M JSP DAUPHINE EST
99 130 ABEL-COINDOZ BENOÎT 00:29:24 10:57 99 CA 99 M SAINT-JEAN-DE-BOURNAY
100 500 DEWULF Nicolas 00:29:33 11:06 100 CA 100 M JSP ST SAVIN
101 64 ORTIZ GABRIEL 00:30:05 11:38 101 CA 101 M LA MURETTE
102 794 GOLOBINEK Lucas 00:30:05 11:38 102 CA 102 M JSP TERRES FROIDES
103 431 MADER Coryn 00:30:22 11:55 103 CA 103 M JSP ST EGREVE
104 499 GONCALVES Lukas Stanislas 00:31:00 12:33 104 CA 104 M JSP ST SAVIN
105 693 ADELMANN Kris 00:31:01 12:34 105 CA 105 M JSP DENT DE CROLLES
106 651 ZOUAOUI Kemyl 00:31:44 13:17 106 CA 106 M JSP MOIRANS
107 315 ZEFERINO Anthony 00:32:09 13:42 107 CA 107 M JSP TULLINS
108 856 FAURE Sacha 00:33:19 14:52 108 CA 108 M JSP MONTALIEU
109 98 BOUZON kévin 00:33:33 15:06 109 CA 109 M JSP ST ETIENNE DE ST GEOIRS
110 678 DURAND Corentin 00:33:39 15:12 110 CA 110 M JSP LA MURE
111 459 VILLARD Mathis 00:33:39 15:12 111 CA 111 M JSP VIZILLE
112 457 MASCIAVE Léo 00:33:43 15:16 112 CA 112 M JSP VIZILLE
113 21 GOUBET Alexandre 00:34:24 15:57 113 CA 113 M JSP BEAUREPAIRE
114 507 FERRAZ Rémy 00:35:40 17:13 114 CA 114 M JSP ST SAVIN
115 900 DELORME MAXIME 00:36:21 17:54 115 CA 115 M JSP DAUPHINE EST
116 829 ERISAY Jullien 00:36:21 17:54 116 CA 116 M JSP DAUPHINE EST
117 188 GELIOT Kevin 00:37:02 18:35 117 CA 117 M JSP DES DEUX GUIERS
118 184 PIOZ Joris 00:37:33 19:06 118 CA 118 M JSP DES DEUX GUIERS
119 827 ANDRIEU Hugo 00:38:35 20:08 119 CA 119 M JSP DAUPHINE EST
120 789 LORREARD Kyllian 00:39:27 21:00 120 CA 120 M JSP TERRES FROIDES
  CROSS 38 POMPIERS - CADETS - Chronométrage Perf Event 2019
 
Nombre ou lettres (3 minimum)
Classement    
Filtre :
Rang :